Time,TemperatureF,DewpointF,PressureIn,WindDirection,WindDirectionDegrees,WindSpeedMPH,WindSpeedGustMPH,Humidity,HourlyPrecipIn,Conditions,Clouds,dailyrainin,SoftwareType,DateUTC
2013-05-19 00:01:00,55.1,40.1,29.76,ENE,74,0.0,3.0,57,0.00,,,0.00,HR-IXPWINDi_r2_v1.2.,2013-05-19 06:01:00,
2013-05-19 00:06:00,54.9,39.9,29.76,East,82,1.0,3.0,57,0.00,,,0.00,HR-IXPWINDi_r2_v1.2.,2013-05-19 06:06:00,
2013-05-19 00:11:00,54.5,40.0,29.75,East,96,1.0,3.0,58,0.00,,,0.00,HR-IXPWINDi_r2_v1.2.,2013-05-19 06:11:00,
2013-05-19 00:16:00,54.2,40.1,29.76,East,94,2.0,2.0,59,0.00,,,0.00,HR-IXPWINDi_r2_v1.2.,2013-05-19 06:16:00,
2013-05-19 00:22:00,54.1,40.0,29.76,East,98,1.0,3.0,59,0.00,,,0.00,HR-IXPWINDi_r2_v1.2.,2013-05-19 06:22:00,
2013-05-19 00:27:00,54.1,40.0,29.76,East,94,1.0,3.0,59,0.00,,,0.00,HR-IXPWINDi_r2_v1.2.,2013-05-19 06:27:00,
2013-05-19 00:32:00,53.9,39.9,29.76,East,95,0.0,2.0,59,0.00,,,0.00,HR-IXPWINDi_r2_v1.2.,2013-05-19 06:32:00,
2013-05-19 00:37:00,53.6,39.6,29.76,SSE,162,1.0,1.0,59,0.00,,,0.00,HR-IXPWINDi_r2_v1.2.,2013-05-19 06:37:00,
2013-05-19 00:42:00,53.4,39.4,29.76,SSW,210,0.0,2.0,59,0.00,,,0.00,HR-IXPWINDi_r2_v1.2.,2013-05-19 06:42:00,
2013-05-19 00:47:00,53.0,39.9,29.76,SSW,210,0.0,2.0,61,0.00,,,0.00,HR-IXPWINDi_r2_v1.2.,2013-05-19 06:47:00,
2013-05-19 00:52:00,52.6,39.9,29.76,SSW,210,0.0,1.0,62,0.00,,,0.00,HR-IXPWINDi_r2_v1.2.,2013-05-19 06:52:00,
2013-05-19 00:57:00,52.4,40.1,29.76,SSW,210,0.0,1.0,63,0.00,,,0.00,HR-IXPWINDi_r2_v1.2.,2013-05-19 06:57:00,
2013-05-19 01:03:00,52.1,40.3,29.76,SSW,210,1.0,1.0,64,0.00,,,0.00,HR-IXPWINDi_r2_v1.2.,2013-05-19 07:03:00,
2013-05-19 01:08:00,51.8,40.4,29.76,NE,49,2.0,2.0,65,0.00,,,0.00,HR-IXPWINDi_r2_v1.2.,2013-05-19 07:08:00,
2013-05-19 01:13:00,51.4,40.4,29.76,NE,44,0.0,2.0,66,0.00,,,0.00,HR-IXPWINDi_r2_v1.2.,2013-05-19 07:13:00,
2013-05-19 01:18:00,51.1,40.5,29.76,NNE,23,0.0,2.0,67,0.00,,,0.00,HR-IXPWINDi_r2_v1.2.,2013-05-19 07:18:00,
2013-05-19 01:23:00,50.8,40.2,29.76,NNE,23,0.0,1.0,67,0.00,,,0.00,HR-IXPWINDi_r2_v1.2.,2013-05-19 07:23:00,
2013-05-19 01:28:00,50.6,40.4,29.77,North,356,1.0,1.0,68,0.00,,,0.00,HR-IXPWINDi_r2_v1.2.,2013-05-19 07:28:00,
2013-05-19 01:34:00,50.3,40.1,29.77,NW,312,0.0,1.0,68,0.00,,,0.00,HR-IXPWINDi_r2_v1.2.,2013-05-19 07:34:00,
2013-05-19 01:39:00,50.1,39.9,29.77,NW,317,2.0,2.0,68,0.00,,,0.00,HR-IXPWINDi_r2_v1.2.,2013-05-19 07:39:00,
2013-05-19 01:44:00,49.7,39.5,29.77,NW,317,1.0,2.0,68,0.00,,,0.00,HR-IXPWINDi_r2_v1.2.,2013-05-19 07:44:00,
2013-05-19 01:49:00,49.5,39.3,29.77,NW,318,0.0,2.0,68,0.00,,,0.00,HR-IXPWINDi_r2_v1.2.,2013-05-19 07:49:00,
2013-05-19 01:54:00,49.3,39.5,29.77,NW,318,1.0,1.0,69,0.00,,,0.00,HR-IXPWINDi_r2_v1.2.,2013-05-19 07:54:00,
2013-05-19 01:59:00,49.1,39.7,29.77,WNW,302,0.0,2.0,70,0.00,,,0.00,HR-IXPWINDi_r2_v1.2.,2013-05-19 07:59:00,
2013-05-19 02:04:00,48.9,39.5,29.77,WNW,302,1.0,2.0,70,0.00,,,0.00,HR-IXPWINDi_r2_v1.2.,2013-05-19 08:04:00,
2013-05-19 02:09:00,48.7,39.3,29.77,WNW,302,0.0,1.0,70,0.00,,,0.00,HR-IXPWINDi_r2_v1.2.,2013-05-19 08:09:00,
2013-05-19 02:14:00,48.6,39.2,29.77,WNW,297,0.0,1.0,70,0.00,,,0.00,HR-IXPWINDi_r2_v1.2.,2013-05-19 08:14:00,
2013-05-19 02:19:00,48.4,39.4,29.77,WNW,296,0.0,1.0,71,0.00,,,0.00,HR-IXPWINDi_r2_v1.2.,2013-05-19 08:19:00,
2013-05-19 02:24:00,48.3,39.3,29.77,NW,307,0.0,1.0,71,0.00,,,0.00,HR-IXPWINDi_r2_v1.2.,2013-05-19 08:24:00,
2013-05-19 02:29:00,48.0,39.4,29.77,NW,307,0.0,1.0,72,0.00,,,0.00,HR-IXPWINDi_r2_v1.2.,2013-05-19 08:29:00,
2013-05-19 02:35:00,47.8,39.2,29.77,North,356,1.0,2.0,72,0.00,,,0.00,HR-IXPWINDi_r2_v1.2.,2013-05-19 08:35:00,
2013-05-19 02:40:00,47.7,39.1,29.77,North,354,1.0,2.0,72,0.00,,,0.00,HR-IXPWINDi_r2_v1.2.,2013-05-19 08:40:00,
2013-05-19 02:45:00,47.4,38.8,29.78,NNW,348,0.0,1.0,72,0.00,,,0.00,HR-IXPWINDi_r2_v1.2.,2013-05-19 08:45:00,
2013-05-19 02:50:00,47.2,38.6,29.78,NNW,328,0.0,2.0,72,0.00,,,0.00,HR-IXPWINDi_r2_v1.2.,2013-05-19 08:50:00,
2013-05-19 02:55:00,46.9,38.3,29.78,NNW,328,1.0,2.0,72,0.00,,,0.00,HR-IXPWINDi_r2_v1.2.,2013-05-19 08:55:00,
2013-05-19 03:01:00,46.8,38.2,29.78,West,278,1.0,2.0,72,0.00,,,0.00,HR-IXPWINDi_r2_v1.2.,2013-05-19 09:01:00,
2013-05-19 03:06:00,46.5,37.9,29.78,West,278,0.0,2.0,72,0.00,,,0.00,HR-IXPWINDi_r2_v1.2.,2013-05-19 09:06:00,
2013-05-19 03:11:00,46.0,37.8,29.78,NNW,340,0.0,1.0,73,0.00,,,0.00,HR-IXPWINDi_r2_v1.2.,2013-05-19 09:11:00,
2013-05-19 03:16:00,45.9,38.0,29.78,NNW,340,0.0,1.0,74,0.00,,,0.00,HR-IXPWINDi_r2_v1.2.,2013-05-19 09:16:00,
2013-05-19 03:22:00,45.9,38.0,29.78,NNW,340,0.0,1.0,74,0.00,,,0.00,HR-IXPWINDi_r2_v1.2.,2013-05-19 09:22:00,
2013-05-19 03:27:00,45.8,38.3,29.78,NNW,340,0.0,1.0,75,0.00,,,0.00,HR-IXPWINDi_r2_v1.2.,2013-05-19 09:27:00,
2013-05-19 03:32:00,45.6,38.4,29.78,NNW,340,1.0,1.0,76,0.00,,,0.00,HR-IXPWINDi_r2_v1.2.,2013-05-19 09:32:00,
2013-05-19 03:37:00,45.5,38.3,29.78,WSW,252,1.0,1.0,76,0.00,,,0.00,HR-IXPWINDi_r2_v1.2.,2013-05-19 09:37:00,
2013-05-19 03:42:00,45.5,38.3,29.78,SW,222,0.0,2.0,76,0.00,,,0.00,HR-IXPWINDi_r2_v1.2.,2013-05-19 09:42:00,
2013-05-19 03:47:00,45.3,38.5,29.78,West,281,0.0,2.0,77,0.00,,,0.00,HR-IXPWINDi_r2_v1.2.,2013-05-19 09:47:00,
2013-05-19 03:53:00,45.4,38.6,29.79,West,267,1.0,3.0,77,0.00,,,0.00,HR-IXPWINDi_r2_v1.2.,2013-05-19 09:53:00,
2013-05-19 03:58:00,45.4,38.6,29.78,West,267,0.0,3.0,77,0.00,,,0.00,HR-IXPWINDi_r2_v1.2.,2013-05-19 09:58:00,
2013-05-19 04:03:00,45.0,38.2,29.78,West,264,0.0,1.0,77,0.00,,,0.00,HR-IXPWINDi_r2_v1.2.,2013-05-19 10:03:00,
2013-05-19 04:08:00,44.5,38.0,29.78,West,264,0.0,1.0,78,0.00,,,0.00,HR-IXPWINDi_r2_v1.2.,2013-05-19 10:08:00,
2013-05-19 04:13:00,44.3,38.2,29.78,West,270,1.0,1.0,79,0.00,,,0.00,HR-IXPWINDi_r2_v1.2.,2013-05-19 10:13:00,
2013-05-19 04:18:00,44.1,38.3,29.78,West,269,0.0,1.0,80,0.00,,,0.00,HR-IXPWINDi_r2_v1.2.,2013-05-19 10:18:00,
2013-05-19 04:23:00,44.0,38.2,29.78,West,270,0.0,1.0,80,0.00,,,0.00,HR-IXPWINDi_r2_v1.2.,2013-05-19 10:23:00,
2013-05-19 04:29:00,43.7,37.9,29.78,West,270,0.0,0.0,80,0.00,,,0.00,HR-IXPWINDi_r2_v1.2.,2013-05-19 10:29:00,
2013-05-19 04:35:00,43.4,37.9,29.78,West,270,0.0,0.0,81,0.00,,,0.00,HR-IXPWINDi_r2_v1.2.,2013-05-19 10:35:00,
2013-05-19 04:41:00,43.5,38.3,29.78,West,270,0.0,1.0,82,0.00,,,0.00,HR-IXPWINDi_r2_v1.2.,2013-05-19 10:41:00,
2013-05-19 04:46:00,43.6,38.4,29.78,West,270,1.0,1.0,82,0.00,,,0.00,HR-IXPWINDi_r2_v1.2.,2013-05-19 10:46:00,
2013-05-19 04:51:00,43.9,38.4,29.78,West,281,0.0,2.0,81,0.00,,,0.00,HR-IXPWINDi_r2_v1.2.,2013-05-19 10:51:00,
2013-05-19 04:56:00,43.9,38.4,29.79,WNW,293,1.0,2.0,81,0.00,,,0.00,HR-IXPWINDi_r2_v1.2.,2013-05-19 10:56:00,
2013-05-19 05:01:00,43.8,38.0,29.79,NW,322,0.0,1.0,80,0.00,,,0.00,HR-IXPWINDi_r2_v1.2.,2013-05-19 11:01:00,
2013-05-19 05:07:00,43.7,37.9,29.79,NW,322,0.0,1.0,80,0.00,,,0.00,HR-IXPWINDi_r2_v1.2.,2013-05-19 11:07:00,
2013-05-19 05:12:00,43.6,37.8,29.79,NW,322,0.0,1.0,80,0.00,,,0.00,HR-IXPWINDi_r2_v1.2.,2013-05-19 11:12:00,
2013-05-19 05:17:00,43.4,37.9,29.79,NW,322,0.0,1.0,81,0.00,,,0.00,HR-IXPWINDi_r2_v1.2.,2013-05-19 11:17:00,
2013-05-19 05:22:00,42.9,37.4,29.79,NW,322,0.0,1.0,81,0.00,,,0.00,HR-IXPWINDi_r2_v1.2.,2013-05-19 11:22:00,
2013-05-19 05:28:00,42.4,36.9,29.79,NW,322,0.0,0.0,81,0.00,,,0.00,HR-IXPWINDi_r2_v1.2.,2013-05-19 11:28:00,
2013-05-19 05:33:00,42.2,36.7,29.79,NW,326,0.0,1.0,81,0.00,,,0.00,HR-IXPWINDi_r2_v1.2.,2013-05-19 11:33:00,
2013-05-19 05:38:00,42.0,36.6,29.79,NW,326,0.0,1.0,81,0.00,,,0.00,HR-IXPWINDi_r2_v1.2.,2013-05-19 11:38:00,
2013-05-19 05:43:00,41.9,36.8,29.80,NW,326,0.0,1.0,82,0.00,,,0.00,HR-IXPWINDi_r2_v1.2.,2013-05-19 11:43:00,
2013-05-19 05:48:00,41.9,36.8,29.80,NNE,28,0.0,1.0,82,0.00,,,0.00,HR-IXPWINDi_r2_v1.2.,2013-05-19 11:48:00,
2013-05-19 05:53:00,42.0,36.9,29.80,NNE,29,0.0,1.0,82,0.00,,,0.00,HR-IXPWINDi_r2_v1.2.,2013-05-19 11:53:00,
2013-05-19 05:58:00,42.0,36.9,29.80,NNE,28,0.0,1.0,82,0.00,,,0.00,HR-IXPWINDi_r2_v1.2.,2013-05-19 11:58:00,
2013-05-19 06:04:00,41.9,36.8,29.80,NNE,29,0.0,1.0,82,0.00,,,0.00,HR-IXPWINDi_r2_v1.2.,2013-05-19 12:04:00,
2013-05-19 06:09:00,42.0,37.2,29.80,NNE,29,0.0,1.0,83,0.00,,,0.00,HR-IXPWINDi_r2_v1.2.,2013-05-19 12:09:00,
2013-05-19 06:14:00,41.9,36.8,29.80,NNE,29,0.0,1.0,82,0.00,,,0.00,HR-IXPWINDi_r2_v1.2.,2013-05-19 12:14:00,
2013-05-19 06:19:00,41.8,36.7,29.81,NNE,29,0.0,1.0,82,0.00,,,0.00,HR-IXPWINDi_r2_v1.2.,2013-05-19 12:19:00,
2013-05-19 06:24:00,41.9,37.1,29.81,NNE,29,0.0,1.0,83,0.00,,,0.00,HR-IXPWINDi_r2_v1.2.,2013-05-19 12:24:00,
2013-05-19 06:29:00,42.3,37.2,29.81,NNE,29,0.0,1.0,82,0.00,,,0.00,HR-IXPWINDi_r2_v1.2.,2013-05-19 12:29:00,
2013-05-19 06:34:00,42.6,37.4,29.81,NNE,28,0.0,2.0,82,0.00,,,0.00,HR-IXPWINDi_r2_v1.2.,2013-05-19 12:34:00,
2013-05-19 06:39:00,42.6,37.1,29.81,NNE,29,0.0,2.0,81,0.00,,,0.00,HR-IXPWINDi_r2_v1.2.,2013-05-19 12:39:00,
2013-05-19 06:45:00,42.3,36.8,29.81,NNE,29,0.0,1.0,81,0.00,,,0.00,HR-IXPWINDi_r2_v1.2.,2013-05-19 12:45:00,
2013-05-19 06:50:00,42.2,37.4,29.81,NNE,29,1.0,1.0,83,0.00,,,0.00,HR-IXPWINDi_r2_v1.2.,2013-05-19 12:50:00,
2013-05-19 06:55:00,42.6,37.4,29.81,NE,49,3.0,3.0,82,0.00,,,0.00,HR-IXPWINDi_r2_v1.2.,2013-05-19 12:55:00,
2013-05-19 07:00:00,42.9,37.4,29.81,ENE,64,1.0,3.0,81,0.00,,,0.00,HR-IXPWINDi_r2_v1.2.,2013-05-19 13:00:00,
2013-05-19 07:05:00,43.0,37.5,29.82,East,81,1.0,3.0,81,0.00,,,0.00,HR-IXPWINDi_r2_v1.2.,2013-05-19 13:05:00,
2013-05-19 07:11:00,43.2,37.7,29.82,ENE,71,0.0,2.0,81,0.00,,,0.00,HR-IXPWINDi_r2_v1.2.,2013-05-19 13:11:00,
2013-05-19 07:16:00,43.8,38.0,29.82,ESE,120,0.0,2.0,80,0.00,,,0.00,HR-IXPWINDi_r2_v1.2.,2013-05-19 13:16:00,
2013-05-19 07:21:00,44.2,38.4,29.83,ESE,111,0.0,1.0,80,0.00,,,0.00,HR-IXPWINDi_r2_v1.2.,2013-05-19 13:21:00,
2013-05-19 07:26:00,44.6,38.4,29.83,ENE,71,0.0,2.0,79,0.00,,,0.00,HR-IXPWINDi_r2_v1.2.,2013-05-19 13:26:00,
2013-05-19 07:32:00,45.0,38.8,29.83,ENE,71,0.0,2.0,79,0.00,,,0.00,HR-IXPWINDi_r2_v1.2.,2013-05-19 13:32:00,
2013-05-19 07:37:00,45.5,39.0,29.83,ENE,71,0.0,1.0,78,0.00,,,0.00,HR-IXPWINDi_r2_v1.2.,2013-05-19 13:37:00,
2013-05-19 07:42:00,46.1,39.2,29.83,ENE,71,0.0,1.0,77,0.00,,,0.00,HR-IXPWINDi_r2_v1.2.,2013-05-19 13:42:00,
2013-05-19 07:47:00,47.0,39.8,29.83,ENE,72,0.0,1.0,76,0.00,,,0.00,HR-IXPWINDi_r2_v1.2.,2013-05-19 13:47:00,
2013-05-19 07:52:00,48.2,39.9,29.83,NE,44,1.0,2.0,73,0.00,,,0.00,HR-IXPWINDi_r2_v1.2.,2013-05-19 13:52:00,
2013-05-19 07:57:00,49.0,39.6,29.82,North,359,2.0,2.0,70,0.00,,,0.00,HR-IXPWINDi_r2_v1.2.,2013-05-19 13:57:00,
2013-05-19 08:03:00,48.9,39.1,29.83,North,4,1.0,2.0,69,0.00,,,0.00,HR-IXPWINDi_r2_v1.2.,2013-05-19 14:03:00,
2013-05-19 08:08:00,48.8,39.0,29.83,North,1,1.0,2.0,69,0.00,,,0.00,HR-IXPWINDi_r2_v1.2.,2013-05-19 14:08:00,
2013-05-19 08:13:00,49.2,39.8,29.83,North,1,0.0,2.0,70,0.00,,,0.00,HR-IXPWINDi_r2_v1.2.,2013-05-19 14:13:00,
2013-05-19 08:18:00,50.3,38.5,29.84,WNW,300,1.0,2.0,64,0.00,,,0.00,HR-IXPWINDi_r2_v1.2.,2013-05-19 14:18:00,
2013-05-19 08:24:00,50.7,38.1,29.83,NW,311,1.0,2.0,62,0.00,,,0.00,HR-IXPWINDi_r2_v1.2.,2013-05-19 14:24:00,
2013-05-19 08:29:00,50.9,38.3,29.84,NW,309,0.0,2.0,62,0.00,,,0.00,HR-IXPWINDi_r2_v1.2.,2013-05-19 14:29:00,
2013-05-19 08:34:00,51.7,39.1,29.84,NW,311,0.0,2.0,62,0.00,,,0.00,HR-IXPWINDi_r2_v1.2.,2013-05-19 14:34:00,
2013-05-19 08:39:00,52.6,39.1,29.84,NNE,24,1.0,2.0,60,0.00,,,0.00,HR-IXPWINDi_r2_v1.2.,2013-05-19 14:39:00,
2013-05-19 08:44:00,52.5,39.4,29.84,NNE,12,0.0,3.0,61,0.00,,,0.00,HR-IXPWINDi_r2_v1.2.,2013-05-19 14:44:00,
2013-05-19 08:50:00,53.2,40.9,29.84,NNE,32,1.0,3.0,63,0.00,,,0.00,HR-IXPWINDi_r2_v1.2.,2013-05-19 14:50:00,
2013-05-19 08:55:00,53.9,41.1,29.84,NNE,14,2.0,3.0,62,0.00,,,0.00,HR-IXPWINDi_r2_v1.2.,2013-05-19 14:55:00,
2013-05-19 09:00:00,54.3,40.2,29.84,NNE,28,0.0,4.0,59,0.00,,,0.00,HR-IXPWINDi_r2_v1.2.,2013-05-19 15:00:00,
2013-05-19 09:05:00,55.4,40.8,29.84,NE,49,1.0,4.0,58,0.00,,,0.00,HR-IXPWINDi_r2_v1.2.,2013-05-19 15:05:00,
2013-05-19 09:11:00,55.9,40.4,29.84,NW,307,0.0,2.0,56,0.00,,,0.00,HR-IXPWINDi_r2_v1.2.,2013-05-19 15:11:00,
2013-05-19 09:16:00,57.2,41.1,29.84,WNW,297,1.0,2.0,55,0.00,,,0.00,HR-IXPWINDi_r2_v1.2.,2013-05-19 15:16:00,
2013-05-19 09:21:00,57.7,40.6,29.84,East,92,1.0,2.0,53,0.00,,,0.00,HR-IXPWINDi_r2_v1.2.,2013-05-19 15:21:00,
2013-05-19 09:26:00,58.4,39.3,29.84,NE,49,2.0,3.0,49,0.00,,,0.00,HR-IXPWINDi_r2_v1.2.,2013-05-19 15:26:00,
2013-05-19 09:32:00,58.6,40.0,29.84,East,84,0.0,3.0,50,0.00,,,0.00,HR-IXPWINDi_r2_v1.2.,2013-05-19 15:32:00,
2013-05-19 09:37:00,59.8,38.4,29.84,SSW,205,0.0,3.0,45,0.00,,,0.00,HR-IXPWINDi_r2_v1.2.,2013-05-19 15:37:00,
2013-05-19 09:42:00,60.0,38.0,29.83,West,276,1.0,3.0,44,0.00,,,0.00,HR-IXPWINDi_r2_v1.2.,2013-05-19 15:42:00,
2013-05-19 09:48:00,60.3,37.7,29.83,SW,218,2.0,4.0,43,0.00,,,0.00,HR-IXPWINDi_r2_v1.2.,2013-05-19 15:48:00,
2013-05-19 09:53:00,60.2,37.0,29.83,South,177,0.0,4.0,42,0.00,,,0.00,HR-IXPWINDi_r2_v1.2.,2013-05-19 15:53:00,
2013-05-19 09:58:00,61.1,37.8,29.83,ENE,76,1.0,3.0,42,0.00,,,0.00,HR-IXPWINDi_r2_v1.2.,2013-05-19 15:58:00,
2013-05-19 10:03:00,61.1,37.2,29.83,WNW,293,2.0,6.0,41,0.00,,,0.00,HR-IXPWINDi_r2_v1.2.,2013-05-19 16:03:00,
2013-05-19 10:09:00,60.9,37.0,29.83,SW,219,1.0,6.0,41,0.00,,,0.00,HR-IXPWINDi_r2_v1.2.,2013-05-19 16:09:00,
2013-05-19 10:14:00,61.7,36.5,29.82,SW,218,2.0,3.0,39,0.00,,,0.00,HR-IXPWINDi_r2_v1.2.,2013-05-19 16:14:00,
2013-05-19 10:19:00,62.3,37.0,29.82,West,269,4.0,7.0,39,0.00,,,0.00,HR-IXPWINDi_r2_v1.2.,2013-05-19 16:19:00,
2013-05-19 10:25:00,61.7,36.5,29.82,NW,309,2.0,7.0,39,0.00,,,0.00,HR-IXPWINDi_r2_v1.2.,2013-05-19 16:25:00,
2013-05-19 10:30:00,62.2,36.9,29.82,SW,224,1.0,5.0,39,0.00,,,0.00,HR-IXPWINDi_r2_v1.2.,2013-05-19 16:30:00,
2013-05-19 10:35:00,62.9,37.5,29.82,West,272,2.0,5.0,39,0.00,,,0.00,HR-IXPWINDi_r2_v1.2.,2013-05-19 16:35:00,
2013-05-19 10:40:00,62.8,36.1,29.82,NNW,344,3.0,7.0,37,0.00,,,0.00,HR-IXPWINDi_r2_v1.2.,2013-05-19 16:40:00,
2013-05-19 10:45:00,62.9,37.5,29.82,NNE,16,3.0,8.0,39,0.00,,,0.00,HR-IXPWINDi_r2_v1.2.,2013-05-19 16:45:00,
2013-05-19 10:50:00,63.3,39.2,29.81,NE,34,4.0,8.0,41,0.00,,,0.00,HR-IXPWINDi_r2_v1.2.,2013-05-19 16:50:00,
2013-05-19 10:55:00,64.3,36.7,29.81,NW,322,2.0,7.0,36,0.00,,,0.00,HR-IXPWINDi_r2_v1.2.,2013-05-19 16:55:00,
2013-05-19 11:01:00,64.6,36.3,29.81,WNW,285,9.0,10.0,35,0.00,,,0.00,HR-IXPWINDi_r2_v1.2.,2013-05-19 17:01:00,
2013-05-19 11:06:00,63.9,34.2,29.81,WNW,293,5.0,14.0,33,0.00,,,0.00,HR-IXPWINDi_r2_v1.2.,2013-05-19 17:06:00,
2013-05-19 11:11:00,63.8,35.6,29.81,WNW,293,6.0,14.0,35,0.00,,,0.00,HR-IXPWINDi_r2_v1.2.,2013-05-19 17:11:00,
2013-05-19 11:16:00,63.6,35.4,29.81,NNE,22,4.0,14.0,35,0.00,,,0.00,HR-IXPWINDi_r2_v1.2.,2013-05-19 17:16:00,
2013-05-19 11:22:00,64.0,35.0,29.81,WNW,302,8.0,14.0,34,0.00,,,0.00,HR-IXPWINDi_r2_v1.2.,2013-05-19 17:22:00,
2013-05-19 11:27:00,64.4,35.4,29.81,WNW,288,6.0,10.0,34,0.00,,,0.00,HR-IXPWINDi_r2_v1.2.,2013-05-19 17:27:00,
2013-05-19 11:32:00,64.4,35.4,29.81,West,281,1.0,10.0,34,0.00,,,0.00,HR-IXPWINDi_r2_v1.2.,2013-05-19 17:32:00,
2013-05-19 11:37:00,65.1,35.3,29.81,WNW,297,10.0,10.0,33,0.00,,,0.00,HR-IXPWINDi_r2_v1.2.,2013-05-19 17:37:00,
2013-05-19 11:42:00,64.5,35.5,29.81,NNE,12,6.0,11.0,34,0.00,,,0.00,HR-IXPWINDi_r2_v1.2.,2013-05-19 17:42:00,
2013-05-19 11:47:00,64.4,36.1,29.81,NNE,20,6.0,11.0,35,0.00,,,0.00,HR-IXPWINDi_r2_v1.2.,2013-05-19 17:47:00,
2013-05-19 11:53:00,65.1,36.7,29.80,NW,326,5.0,11.0,35,0.00,,,0.00,HR-IXPWINDi_r2_v1.2.,2013-05-19 17:53:00,
2013-05-19 11:58:00,65.1,36.7,29.80,ESE,113,3.0,17.0,35,0.00,,,0.00,HR-IXPWINDi_r2_v1.2.,2013-05-19 17:58:00,
2013-05-19 12:03:00,65.0,35.9,29.80,WNW,292,4.0,17.0,34,0.00,,,0.00,HR-IXPWINDi_r2_v1.2.,2013-05-19 18:03:00,
2013-05-19 12:08:00,65.4,38.4,29.80,North,352,6.0,11.0,37,0.00,,,0.00,HR-IXPWINDi_r2_v1.2.,2013-05-19 18:08:00,
2013-05-19 12:13:00,65.5,36.4,29.80,WNW,297,4.0,11.0,34,0.00,,,0.00,HR-IXPWINDi_r2_v1.2.,2013-05-19 18:13:00,
2013-05-19 12:18:00,65.6,36.4,29.80,North,360,6.0,11.0,34,0.00,,,0.00,HR-IXPWINDi_r2_v1.2.,2013-05-19 18:18:00,
2013-05-19 12:23:00,65.6,35.7,29.79,ENE,58,3.0,11.0,33,0.00,,,0.00,HR-IXPWINDi_r2_v1.2.,2013-05-19 18:23:00,
2013-05-19 12:29:00,66.0,35.3,29.79,NW,315,5.0,11.0,32,0.00,,,0.00,HR-IXPWINDi_r2_v1.2.,2013-05-19 18:29:00,
2013-05-19 12:34:00,66.2,36.2,29.79,WNW,297,6.0,11.0,33,0.00,,,0.00,HR-IXPWINDi_r2_v1.2.,2013-05-19 18:34:00,
2013-05-19 12:39:00,66.4,35.6,29.79,WNW,284,4.0,11.0,32,0.00,,,0.00,HR-IXPWINDi_r2_v1.2.,2013-05-19 18:39:00,
2013-05-19 12:44:00,66.0,35.3,29.79,NNE,20,4.0,11.0,32,0.00,,,0.00,HR-IXPWINDi_r2_v1.2.,2013-05-19 18:44:00,
2013-05-19 12:49:00,66.7,36.7,29.78,NNE,23,3.0,12.0,33,0.00,,,0.00,HR-IXPWINDi_r2_v1.2.,2013-05-19 18:49:00,
2013-05-19 12:54:00,67.1,35.4,29.78,WNW,284,5.0,12.0,31,0.00,,,0.00,HR-IXPWINDi_r2_v1.2.,2013-05-19 18:54:00,
2013-05-19 12:59:00,66.6,35.0,29.78,WNW,302,7.0,9.0,31,0.00,,,0.00,HR-IXPWINDi_r2_v1.2.,2013-05-19 18:59:00,
2013-05-19 13:05:00,67.0,34.5,29.77,NNE,15,4.0,10.0,30,0.00,,,0.00,HR-IXPWINDi_r2_v1.2.,2013-05-19 19:05:00,
2013-05-19 13:10:00,67.8,34.4,29.77,WNW,288,5.0,11.0,29,0.00,,,0.00,HR-IXPWINDi_r2_v1.2.,2013-05-19 19:10:00,
2013-05-19 13:15:00,67.7,33.4,29.77,West,262,4.0,12.0,28,0.00,,,0.00,HR-IXPWINDi_r2_v1.2.,2013-05-19 19:15:00,
2013-05-19 13:20:00,67.3,34.8,29.77,North,356,4.0,13.0,30,0.00,,,0.00,HR-IXPWINDi_r2_v1.2.,2013-05-19 19:20:00,
2013-05-19 13:25:00,67.0,33.7,29.77,WNW,290,5.0,13.0,29,0.00,,,0.00,HR-IXPWINDi_r2_v1.2.,2013-05-19 19:25:00,
2013-05-19 13:30:00,67.0,33.7,29.77,WNW,290,6.0,13.0,29,0.00,,,0.00,HR-IXPWINDi_r2_v1.2.,2013-05-19 19:30:00,
2013-05-19 13:36:00,66.1,35.4,29.77,WNW,284,6.0,13.0,32,0.00,,,0.00,HR-IXPWINDi_r2_v1.2.,2013-05-19 19:36:00,
2013-05-19 13:41:00,64.8,35.0,29.78,NW,304,3.0,15.0,33,0.00,,,0.00,HR-IXPWINDi_r2_v1.2.,2013-05-19 19:41:00,
2013-05-19 13:46:00,64.7,34.9,29.77,WNW,295,13.0,15.0,33,0.00,,,0.00,HR-IXPWINDi_r2_v1.2.,2013-05-19 19:46:00,
2013-05-19 13:51:00,65.6,33.3,29.77,SW,221,6.0,13.0,30,0.00,,,0.00,HR-IXPWINDi_r2_v1.2.,2013-05-19 19:51:00,
2013-05-19 13:56:00,66.9,32.7,29.77,WNW,288,11.0,14.0,28,0.00,,,0.00,HR-IXPWINDi_r2_v1.2.,2013-05-19 19:56:00,
2013-05-19 14:02:00,67.7,33.4,29.77,WSW,256,4.0,18.0,28,0.00,,,0.00,HR-IXPWINDi_r2_v1.2.,2013-05-19 20:02:00,
2013-05-19 14:07:00,68.2,32.0,29.77,West,274,3.0,18.0,26,0.00,,,0.00,HR-IXPWINDi_r2_v1.2.,2013-05-19 20:07:00,
2013-05-19 14:12:00,68.3,32.1,29.77,WSW,250,10.0,16.0,26,0.00,,,0.00,HR-IXPWINDi_r2_v1.2.,2013-05-19 20:12:00,
2013-05-19 14:17:00,68.1,32.8,29.76,West,266,6.0,16.0,27,0.00,,,0.00,HR-IXPWINDi_r2_v1.2.,2013-05-19 20:17:00,
2013-05-19 14:22:00,69.2,31.9,29.76,NW,308,11.0,16.0,25,0.00,,,0.00,HR-IXPWINDi_r2_v1.2.,2013-05-19 20:22:00,
2013-05-19 14:28:00,69.1,30.8,29.76,West,277,14.0,16.0,24,0.00,,,0.00,HR-IXPWINDi_r2_v1.2.,2013-05-19 20:28:00,
2013-05-19 14:33:00,69.2,29.8,29.76,WSW,250,14.0,19.0,23,0.00,,,0.00,HR-IXPWINDi_r2_v1.2.,2013-05-19 20:33:00,
2013-05-19 14:38:00,68.8,29.5,29.76,West,266,11.0,19.0,23,0.00,,,0.00,HR-IXPWINDi_r2_v1.2.,2013-05-19 20:38:00,
2013-05-19 14:44:00,68.9,30.6,29.76,West,278,8.0,18.0,24,0.00,,,0.00,HR-IXPWINDi_r2_v1.2.,2013-05-19 20:44:00,
2013-05-19 14:49:00,68.4,29.1,29.77,West,269,8.0,16.0,23,0.00,,,0.00,HR-IXPWINDi_r2_v1.2.,2013-05-19 20:49:00,
2013-05-19 14:54:00,68.7,30.4,29.77,WNW,291,10.0,15.0,24,0.00,,,0.00,HR-IXPWINDi_r2_v1.2.,2013-05-19 20:54:00,
2013-05-19 14:59:00,68.8,30.5,29.77,WNW,285,9.0,18.0,24,0.00,,,0.00,HR-IXPWINDi_r2_v1.2.,2013-05-19 20:59:00,
2013-05-19 15:05:00,68.8,31.5,29.77,West,267,7.0,18.0,25,0.00,,,0.00,HR-IXPWINDi_r2_v1.2.,2013-05-19 21:05:00,
2013-05-19 15:10:00,69.2,29.8,29.77,WNW,284,12.0,19.0,23,0.00,,,0.00,HR-IXPWINDi_r2_v1.2.,2013-05-19 21:10:00,
2013-05-19 15:15:00,68.8,29.5,29.77,WNW,287,14.0,19.0,23,0.00,,,0.00,HR-IXPWINDi_r2_v1.2.,2013-05-19 21:15:00,
2013-05-19 15:20:00,68.6,28.2,29.77,WNW,291,11.0,21.0,22,0.00,,,0.00,HR-IXPWINDi_r2_v1.2.,2013-05-19 21:20:00,
2013-05-19 15:25:00,68.2,30.0,29.77,WNW,297,11.0,22.0,24,0.00,,,0.00,HR-IXPWINDi_r2_v1.2.,2013-05-19 21:25:00,
2013-05-19 15:30:00,68.3,32.1,29.77,West,278,13.0,22.0,26,0.00,,,0.00,HR-IXPWINDi_r2_v1.2.,2013-05-19 21:30:00,
2013-05-19 15:35:00,67.5,29.4,29.77,WNW,294,15.0,26.0,24,0.00,,,0.00,HR-IXPWINDi_r2_v1.2.,2013-05-19 21:35:00,
2013-05-19 15:40:00,66.5,30.5,29.77,WNW,299,17.0,28.0,26,0.00,,,0.00,HR-IXPWINDi_r2_v1.2.,2013-05-19 21:40:00,
2013-05-19 15:45:00,66.7,30.7,29.77,WNW,293,9.0,28.0,26,0.00,,,0.00,HR-IXPWINDi_r2_v1.2.,2013-05-19 21:45:00,
2013-05-19 15:50:00,66.6,30.6,29.77,West,271,16.0,21.0,26,0.00,,,0.00,HR-IXPWINDi_r2_v1.2.,2013-05-19 21:50:00,
2013-05-19 15:56:00,66.0,30.1,29.77,WNW,290,10.0,23.0,26,0.00,,,0.00,HR-IXPWINDi_r2_v1.2.,2013-05-19 21:56:00,
2013-05-19 16:01:00,65.7,30.8,29.77,WNW,293,13.0,23.0,27,0.00,,,0.00,HR-IXPWINDi_r2_v1.2.,2013-05-19 22:01:00,
2013-05-19 16:06:00,65.4,30.5,29.77,WNW,299,14.0,21.0,27,0.00,,,0.00,HR-IXPWINDi_r2_v1.2.,2013-05-19 22:06:00,
2013-05-19 16:11:00,65.5,30.6,29.77,WNW,286,10.0,21.0,27,0.00,,,0.00,HR-IXPWINDi_r2_v1.2.,2013-05-19 22:11:00,
2013-05-19 16:17:00,65.5,29.7,29.77,West,272,6.0,16.0,26,0.00,,,0.00,HR-IXPWINDi_r2_v1.2.,2013-05-19 22:17:00,
2013-05-19 16:22:00,65.3,29.5,29.77,West,271,10.0,14.0,26,0.00,,,0.00,HR-IXPWINDi_r2_v1.2.,2013-05-19 22:22:00,
2013-05-19 16:27:00,65.3,29.5,29.77,West,268,9.0,16.0,26,0.00,,,0.00,HR-IXPWINDi_r2_v1.2.,2013-05-19 22:27:00,
2013-05-19 16:32:00,65.2,28.5,29.77,WNW,293,9.0,16.0,25,0.00,,,0.00,HR-IXPWINDi_r2_v1.2.,2013-05-19 22:32:00,
2013-05-19 16:38:00,65.4,30.5,29.77,SW,232,4.0,13.0,27,0.00,,,0.00,HR-IXPWINDi_r2_v1.2.,2013-05-19 22:38:00,
2013-05-19 16:43:00,65.3,30.4,29.77,WNW,294,8.0,14.0,27,0.00,,,0.00,HR-IXPWINDi_r2_v1.2.,2013-05-19 22:43:00,
2013-05-19 16:48:00,65.1,31.2,29.77,West,280,9.0,14.0,28,0.00,,,0.00,HR-IXPWINDi_r2_v1.2.,2013-05-19 22:48:00,
2013-05-19 16:53:00,65.3,29.5,29.77,West,264,5.0,13.0,26,0.00,,,0.00,HR-IXPWINDi_r2_v1.2.,2013-05-19 22:53:00,
2013-05-19 16:59:00,65.7,27.9,29.76,WNW,297,11.0,16.0,24,0.00,,,0.00,HR-IXPWINDi_r2_v1.2.,2013-05-19 22:59:00,
2013-05-19 17:04:00,66.0,28.2,29.76,WNW,284,9.0,16.0,24,0.00,,,0.00,HR-IXPWINDi_r2_v1.2.,2013-05-19 23:04:00,
2013-05-19 17:09:00,66.2,29.3,29.76,NW,321,5.0,12.0,25,0.00,,,0.00,HR-IXPWINDi_r2_v1.2.,2013-05-19 23:09:00,
2013-05-19 17:14:00,66.7,29.8,29.76,WNW,290,6.0,13.0,25,0.00,,,0.00,HR-IXPWINDi_r2_v1.2.,2013-05-19 23:14:00,
2013-05-19 17:19:00,67.1,30.1,29.76,WSW,245,4.0,13.0,25,0.00,,,0.00,HR-IXPWINDi_r2_v1.2.,2013-05-19 23:19:00,
2013-05-19 17:24:00,67.0,28.0,29.76,SSW,212,2.0,13.0,23,0.00,,,0.00,HR-IXPWINDi_r2_v1.2.,2013-05-19 23:24:00,
2013-05-19 17:29:00,66.7,28.8,29.76,West,272,5.0,10.0,24,0.00,,,0.00,HR-IXPWINDi_r2_v1.2.,2013-05-19 23:29:00,
2013-05-19 17:34:00,66.6,28.7,29.76,West,259,6.0,8.0,24,0.00,,,0.00,HR-IXPWINDi_r2_v1.2.,2013-05-19 23:34:00,
2013-05-19 17:39:00,66.8,27.8,29.76,NW,305,7.0,9.0,23,0.00,,,0.00,HR-IXPWINDi_r2_v1.2.,2013-05-19 23:39:00,
2013-05-19 17:44:00,67.0,28.0,29.75,NNW,331,4.0,10.0,23,0.00,,,0.00,HR-IXPWINDi_r2_v1.2.,2013-05-19 23:44:00,
2013-05-19 17:50:00,67.6,28.5,29.75,NNW,338,3.0,10.0,23,0.00,,,0.00,HR-IXPWINDi_r2_v1.2.,2013-05-19 23:50:00,
2013-05-19 17:55:00,67.8,27.6,29.75,WNW,287,5.0,8.0,22,0.00,,,0.00,HR-IXPWINDi_r2_v1.2.,2013-05-19 23:55:00,
2013-05-19 18:00:00,68.1,28.9,29.75,NNE,26,4.0,7.0,23,0.00,,,0.00,HR-IXPWINDi_r2_v1.2.,2013-05-20 00:00:00,
2013-05-19 18:05:00,68.5,28.1,29.75,WNW,302,0.0,10.0,22,0.00,,,0.00,HR-IXPWINDi_r2_v1.2.,2013-05-20 00:05:00,
2013-05-19 18:10:00,69.2,27.6,29.75,NNW,328,3.0,10.0,21,0.00,,,0.00,HR-IXPWINDi_r2_v1.2.,2013-05-20 00:10:00,
2013-05-19 18:15:00,69.1,27.5,29.75,NNE,27,4.0,7.0,21,0.00,,,0.00,HR-IXPWINDi_r2_v1.2.,2013-05-20 00:15:00,
2013-05-19 18:21:00,69.2,26.4,29.75,NW,314,2.0,7.0,20,0.00,,,0.00,HR-IXPWINDi_r2_v1.2.,2013-05-20 00:21:00,
2013-05-19 18:26:00,69.4,26.6,29.75,WNW,297,1.0,5.0,20,0.00,,,0.00,HR-IXPWINDi_r2_v1.2.,2013-05-20 00:26:00,
2013-05-19 18:31:00,69.4,26.6,29.75,WNW,284,2.0,5.0,20,0.00,,,0.00,HR-IXPWINDi_r2_v1.2.,2013-05-20 00:31:00,
2013-05-19 18:36:00,68.4,26.9,29.75,WNW,300,3.0,7.0,21,0.00,,,0.00,HR-IXPWINDi_r2_v1.2.,2013-05-20 00:36:00,
2013-05-19 18:42:00,67.9,26.5,29.75,NW,308,3.0,7.0,21,0.00,,,0.00,HR-IXPWINDi_r2_v1.2.,2013-05-20 00:42:00,
2013-05-19 18:47:00,67.7,27.5,29.75,NNW,340,2.0,6.0,22,0.00,,,0.00,HR-IXPWINDi_r2_v1.2.,2013-05-20 00:47:00,
2013-05-19 18:53:00,67.4,28.3,29.75,NW,318,3.0,5.0,23,0.00,,,0.00,HR-IXPWINDi_r2_v1.2.,2013-05-20 00:53:00,
2013-05-19 18:59:00,67.1,28.1,29.75,North,356,1.0,4.0,23,0.00,,,0.00,HR-IXPWINDi_r2_v1.2.,2013-05-20 00:59:00,
2013-05-19 19:04:00,66.8,27.8,29.75,NNE,19,2.0,4.0,23,0.00,,,0.00,HR-IXPWINDi_r2_v1.2.,2013-05-20 01:04:00,
2013-05-19 19:09:00,66.6,29.7,29.75,North,354,1.0,4.0,25,0.00,,,0.00,HR-IXPWINDi_r2_v1.2.,2013-05-20 01:09:00,
2013-05-19 19:14:00,66.4,29.5,29.75,West,276,2.0,4.0,25,0.00,,,0.00,HR-IXPWINDi_r2_v1.2.,2013-05-20 01:14:00,
2013-05-19 19:19:00,66.4,28.5,29.75,West,278,1.0,4.0,24,0.00,,,0.00,HR-IXPWINDi_r2_v1.2.,2013-05-20 01:19:00,
2013-05-19 19:25:00,66.2,28.3,29.76,West,259,3.0,6.0,24,0.00,,,0.00,HR-IXPWINDi_r2_v1.2.,2013-05-20 01:25:00,
2013-05-19 19:30:00,66.1,28.2,29.75,West,265,4.0,6.0,24,0.00,,,0.00,HR-IXPWINDi_r2_v1.2.,2013-05-20 01:30:00,
2013-05-19 19:35:00,65.9,29.1,29.76,WNW,287,3.0,7.0,25,0.00,,,0.00,HR-IXPWINDi_r2_v1.2.,2013-05-20 01:35:00,
2013-05-19 19:40:00,65.8,29.0,29.76,West,281,4.0,7.0,25,0.00,,,0.00,HR-IXPWINDi_r2_v1.2.,2013-05-20 01:40:00,
2013-05-19 19:45:00,65.6,28.8,29.76,WSW,252,8.0,8.0,25,0.00,,,0.00,HR-IXPWINDi_r2_v1.2.,2013-05-20 01:45:00,
2013-05-19 19:50:00,65.4,29.6,29.76,WNW,288,5.0,17.0,26,0.00,,,0.00,HR-IXPWINDi_r2_v1.2.,2013-05-20 01:50:00,
2013-05-19 19:56:00,65.0,29.3,29.76,South,174,4.0,17.0,26,0.00,,,0.00,HR-IXPWINDi_r2_v1.2.,2013-05-20 01:56:00,
2013-05-19 20:01:00,64.7,29.9,29.77,West,271,6.0,14.0,27,0.00,,,0.00,HR-IXPWINDi_r2_v1.2.,2013-05-20 02:01:00,
2013-05-19 20:06:00,64.5,30.7,29.77,WNW,285,4.0,12.0,28,0.00,,,0.00,HR-IXPWINDi_r2_v1.2.,2013-05-20 02:06:00,
2013-05-19 20:11:00,63.9,31.0,29.78,West,276,5.0,13.0,29,0.00,,,0.00,HR-IXPWINDi_r2_v1.2.,2013-05-20 02:11:00,
2013-05-19 20:16:00,63.5,31.5,29.78,West,270,6.0,13.0,30,0.00,,,0.00,HR-IXPWINDi_r2_v1.2.,2013-05-20 02:16:00,
2013-05-19 20:21:00,63.0,31.9,29.78,WNW,283,1.0,13.0,31,0.00,,,0.00,HR-IXPWINDi_r2_v1.2.,2013-05-20 02:21:00,
2013-05-19 20:27:00,62.8,31.7,29.78,WSW,257,2.0,12.0,31,0.00,,,0.00,HR-IXPWINDi_r2_v1.2.,2013-05-20 02:27:00,
2013-05-19 20:32:00,62.5,32.2,29.78,West,259,3.0,9.0,32,0.00,,,0.00,HR-IXPWINDi_r2_v1.2.,2013-05-20 02:32:00,
2013-05-19 20:37:00,62.3,32.0,29.78,WSW,247,1.0,4.0,32,0.00,,,0.00,HR-IXPWINDi_r2_v1.2.,2013-05-20 02:37:00,
2013-05-19 20:42:00,62.2,31.2,29.78,NW,305,1.0,6.0,31,0.00,,,0.00,HR-IXPWINDi_r2_v1.2.,2013-05-20 02:42:00,
2013-05-19 20:48:00,62.0,31.0,29.78,West,273,3.0,6.0,31,0.00,,,0.00,HR-IXPWINDi_r2_v1.2.,2013-05-20 02:48:00,
2013-05-19 20:53:00,61.9,30.9,29.79,WNW,293,2.0,6.0,31,0.00,,,0.00,HR-IXPWINDi_r2_v1.2.,2013-05-20 02:53:00,
2013-05-19 20:58:00,61.8,31.6,29.79,NW,325,3.0,6.0,32,0.00,,,0.00,HR-IXPWINDi_r2_v1.2.,2013-05-20 02:58:00,
2013-05-19 21:03:00,61.1,33.2,29.80,North,352,5.0,10.0,35,0.00,,,0.00,HR-IXPWINDi_r2_v1.2.,2013-05-20 03:03:00,
2013-05-19 21:09:00,60.6,33.5,29.80,West,281,1.0,11.0,36,0.00,,,0.00,HR-IXPWINDi_r2_v1.2.,2013-05-20 03:09:00,
2013-05-19 21:14:00,60.3,32.5,29.80,NNW,335,4.0,11.0,35,0.00,,,0.00,HR-IXPWINDi_r2_v1.2.,2013-05-20 03:14:00,
2013-05-19 21:19:00,60.3,33.2,29.80,North,8,4.0,10.0,36,0.00,,,0.00,HR-IXPWINDi_r2_v1.2.,2013-05-20 03:19:00,
2013-05-19 21:24:00,60.3,32.5,29.81,WNW,286,4.0,12.0,35,0.00,,,0.00,HR-IXPWINDi_r2_v1.2.,2013-05-20 03:24:00,
2013-05-19 21:29:00,60.4,31.9,29.81,NNW,336,1.0,12.0,34,0.00,,,0.00,HR-IXPWINDi_r2_v1.2.,2013-05-20 03:29:00,
2013-05-19 21:34:00,60.3,32.5,29.81,WNW,293,2.0,6.0,35,0.00,,,0.00,HR-IXPWINDi_r2_v1.2.,2013-05-20 03:34:00,
2013-05-19 21:40:00,59.9,32.9,29.81,WNW,287,6.0,6.0,36,0.00,,,0.00,HR-IXPWINDi_r2_v1.2.,2013-05-20 03:40:00,
2013-05-19 21:45:00,59.2,33.6,29.81,WNW,290,3.0,6.0,38,0.00,,,0.00,HR-IXPWINDi_r2_v1.2.,2013-05-20 03:45:00,
2013-05-19 21:50:00,58.9,34.0,29.82,WNW,295,3.0,9.0,39,0.00,,,0.00,HR-IXPWINDi_r2_v1.2.,2013-05-20 03:50:00,
2013-05-19 21:55:00,58.4,34.1,29.82,NW,313,3.0,9.0,40,0.00,,,0.00,HR-IXPWINDi_r2_v1.2.,2013-05-20 03:55:00,
2013-05-19 22:00:00,58.3,34.1,29.82,WNW,302,3.0,8.0,40,0.00,,,0.00,HR-IXPWINDi_r2_v1.2.,2013-05-20 04:00:00,
2013-05-19 22:08:00,58.2,34.6,29.82,West,263,4.0,8.0,41,0.00,,,0.00,HR-IXPWINDi_r2_v1.2.,2013-05-20 04:08:00,
2013-05-19 22:13:00,57.8,35.4,29.82,West,276,4.0,8.0,43,0.00,,,0.00,HR-IXPWINDi_r2_v1.2.,2013-05-20 04:13:00,
2013-05-19 22:18:00,57.0,35.8,29.83,West,280,4.0,9.0,45,0.00,,,0.00,HR-IXPWINDi_r2_v1.2.,2013-05-20 04:18:00,
2013-05-19 22:24:00,56.6,36.0,29.83,West,278,4.0,9.0,46,0.00,,,0.00,HR-IXPWINDi_r2_v1.2.,2013-05-20 04:24:00,
2013-05-19 22:29:00,56.4,36.4,29.83,WNW,284,5.0,8.0,47,0.00,,,0.00,HR-IXPWINDi_r2_v1.2.,2013-05-20 04:29:00,
2013-05-19 22:34:00,56.3,36.3,29.83,West,281,4.0,7.0,47,0.00,,,0.00,HR-IXPWINDi_r2_v1.2.,2013-05-20 04:34:00,
2013-05-19 22:39:00,56.4,35.8,29.83,WNW,284,3.0,7.0,46,0.00,,,0.00,HR-IXPWINDi_r2_v1.2.,2013-05-20 04:39:00,
2013-05-19 22:44:00,56.6,36.0,29.83,WNW,283,1.0,6.0,46,0.00,,,0.00,HR-IXPWINDi_r2_v1.2.,2013-05-20 04:44:00,
2013-05-19 22:49:00,56.6,36.0,29.83,WSW,240,4.0,5.0,46,0.00,,,0.00,HR-IXPWINDi_r2_v1.2.,2013-05-20 04:49:00,
2013-05-19 22:55:00,56.4,35.8,29.83,SW,228,3.0,5.0,46,0.00,,,0.00,HR-IXPWINDi_r2_v1.2.,2013-05-20 04:55:00,
2013-05-19 23:00:00,56.4,35.8,29.83,WSW,247,4.0,5.0,46,0.00,,,0.00,HR-IXPWINDi_r2_v1.2.,2013-05-20 05:00:00,
2013-05-19 23:05:00,56.5,35.4,29.83,WSW,257,0.0,4.0,45,0.00,,,0.00,HR-IXPWINDi_r2_v1.2.,2013-05-20 05:05:00,
2013-05-19 23:11:00,56.5,35.4,29.83,West,264,1.0,4.0,45,0.00,,,0.00,HR-IXPWINDi_r2_v1.2.,2013-05-20 05:11:00,
2013-05-19 23:16:00,56.6,34.9,29.83,South,177,2.0,4.0,44,0.00,,,0.00,HR-IXPWINDi_r2_v1.2.,2013-05-20 05:16:00,
2013-05-19 23:21:00,56.6,35.5,29.83,SSW,212,1.0,6.0,45,0.00,,,0.00,HR-IXPWINDi_r2_v1.2.,2013-05-20 05:21:00,
2013-05-19 23:26:00,56.4,35.3,29.83,West,267,1.0,6.0,45,0.00,,,0.00,HR-IXPWINDi_r2_v1.2.,2013-05-20 05:26:00,
2013-05-19 23:31:00,56.1,35.6,29.83,West,276,2.0,6.0,46,0.00,,,0.00,HR-IXPWINDi_r2_v1.2.,2013-05-20 05:31:00,
2013-05-19 23:36:00,55.8,35.8,29.83,West,281,5.0,5.0,47,0.00,,,0.00,HR-IXPWINDi_r2_v1.2.,2013-05-20 05:36:00,
2013-05-19 23:42:00,55.7,35.7,29.83,West,278,2.0,6.0,47,0.00,,,0.00,HR-IXPWINDi_r2_v1.2.,2013-05-20 05:42:00,
2013-05-19 23:47:00,55.3,35.9,29.84,West,271,1.0,6.0,48,0.00,,,0.00,HR-IXPWINDi_r2_v1.2.,2013-05-20 05:47:00,
2013-05-19 23:52:00,54.9,36.1,29.83,West,264,1.0,3.0,49,0.00,,,0.00,HR-IXPWINDi_r2_v1.2.,2013-05-20 05:52:00,
2013-05-19 23:57:00,54.5,36.2,29.83,West,278,1.0,4.0,50,0.00,,,0.00,HR-IXPWINDi_r2_v1.2.,2013-05-20 05:57:00,